Location: Ch�teau-Arnoux
(44.0814°N, 6.0027°E)
Time: 10:25:52
(UTC+00:00)

Cosmos 2360 - Pass Details

Date: 15 November 2019
Orbit: 845 x 857 km, 70.8° (Epoch: 15 December)

Event Time Altitude Azimuth Distance (km) Brightness Sun altitude
Exits shadow 04:20:22 50° 303° (WNW) 1,084 4.4 -23.3°
Maximum altitude 04:21:41 65° 249° (WSW) 943 4.1 -23.1°
Drops below altitude 10° 04:27:19 10° 169° (S) 2,482 6.8 -22.1°
Sets 04:29:46 0° 166° (SSE) 3,413 7.6 -21.7°
